Time,TemperatureF,DewpointF,PressureIn,WindDirection,WindDirectionDegrees,WindSpeedMPH,WindSpeedGustMPH,Humidity,HourlyPrecipIn,Conditions,Clouds,dailyrainin,SoftwareType,DateUTC
2013-05-07 00:02:00,57.8,34.1,29.98,WNW,282,4.0,8.0,41,0.00,,,0.00,WUHU216DAVISVP2,2013-05-07 07:02:00,
2013-05-07 00:07:00,57.7,34.0,29.98,West,279,4.0,7.0,41,0.00,,,0.00,WUHU216DAVISVP2,2013-05-07 07:07:00,
2013-05-07 00:12:00,57.4,33.7,29.98,West,266,4.0,6.0,41,0.00,,,0.00,WUHU216DAVISVP2,2013-05-07 07:12:00,
2013-05-07 00:17:00,57.1,33.5,29.98,West,263,4.0,6.0,41,0.00,,,0.00,WUHU216DAVISVP2,2013-05-07 07:17:00,
2013-05-07 00:22:00,56.6,33.0,29.97,West,272,4.0,6.0,41,0.00,,,0.00,WUHU216DAVISVP2,2013-05-07 07:22:00,
2013-05-07 00:27:00,56.4,33.4,29.97,West,275,4.0,6.0,42,0.00,,,0.00,WUHU216DAVISVP2,2013-05-07 07:27:00,
2013-05-07 00:32:00,56.3,33.4,29.98,West,275,2.0,5.0,42,0.00,,,0.00,WUHU216DAVISVP2,2013-05-07 07:32:00,
2013-05-07 00:37:00,56.1,33.8,29.98,West,277,2.0,3.0,43,0.00,,,0.00,WUHU216DAVISVP2,2013-05-07 07:37:00,
2013-05-07 00:42:00,55.4,33.1,29.98,West,279,2.0,3.0,43,0.00,,,0.00,WUHU216DAVISVP2,2013-05-07 07:42:00,
2013-05-07 00:47:00,54.9,33.3,29.98,West,277,2.0,4.0,44,0.00,,,0.00,WUHU216DAVISVP2,2013-05-07 07:47:00,
2013-05-07 00:52:00,55.1,33.5,29.98,WNW,282,2.0,4.0,44,0.00,,,0.00,WUHU216DAVISVP2,2013-05-07 07:52:00,
2013-05-07 00:57:00,55.5,33.8,29.98,WNW,293,3.0,7.0,44,0.00,,,0.00,WUHU216DAVISVP2,2013-05-07 07:57:00,
2013-05-07 01:02:00,55.7,34.0,29.98,West,272,2.0,4.0,44,0.00,,,0.00,WUHU216DAVISVP2,2013-05-07 08:02:00,
2013-05-07 01:07:00,55.5,33.8,29.98,WNW,283,2.0,4.0,44,0.00,,,0.00,WUHU216DAVISVP2,2013-05-07 08:07:00,
2013-05-07 01:13:00,55.4,33.7,29.98,WNW,297,2.0,4.0,44,0.00,,,0.00,WUHU216DAVISVP2,2013-05-07 08:13:00,
2013-05-07 01:18:00,55.1,33.5,29.97,WNW,289,2.0,5.0,44,0.00,,,0.00,WUHU216DAVISVP2,2013-05-07 08:18:00,
2013-05-07 01:23:00,55.2,33.5,29.97,WNW,291,3.0,6.0,44,0.00,,,0.00,WUHU216DAVISVP2,2013-05-07 08:23:00,
2013-05-07 01:28:00,54.9,33.3,29.97,WNW,283,2.0,3.0,44,0.00,,,0.00,WUHU216DAVISVP2,2013-05-07 08:28:00,
2013-05-07 01:33:00,54.5,33.5,29.97,West,259,2.0,4.0,45,0.00,,,0.00,WUHU216DAVISVP2,2013-05-07 08:33:00,
2013-05-07 01:38:00,53.9,33.5,29.97,West,259,2.0,3.0,46,0.00,,,0.00,WUHU216DAVISVP2,2013-05-07 08:38:00,
2013-05-07 01:43:00,53.4,33.0,29.97,WSW,253,2.0,4.0,46,0.00,,,0.00,WUHU216DAVISVP2,2013-05-07 08:43:00,
2013-05-07 01:48:00,53.3,33.5,29.97,WSW,244,1.0,3.0,47,0.00,,,0.00,WUHU216DAVISVP2,2013-05-07 08:48:00,
2013-05-07 01:53:00,53.2,33.4,29.97,SW,231,2.0,6.0,47,0.00,,,0.00,WUHU216DAVISVP2,2013-05-07 08:53:00,
2013-05-07 01:58:00,53.1,33.3,29.97,North,0,0.0,0.0,47,0.00,,,0.00,WUHU216DAVISVP2,2013-05-07 08:58:00,
2013-05-07 02:03:00,52.8,33.1,29.97,North,0,0.0,0.0,47,0.00,,,0.00,WUHU216DAVISVP2,2013-05-07 09:03:00,
2013-05-07 02:08:00,52.7,32.4,29.97,SW,229,1.0,1.0,46,0.00,,,0.00,WUHU216DAVISVP2,2013-05-07 09:08:00,
2013-05-07 02:13:00,52.5,32.8,29.97,North,0,0.0,0.0,47,0.00,,,0.00,WUHU216DAVISVP2,2013-05-07 09:13:00,
2013-05-07 02:19:00,52.1,32.4,29.97,North,0,0.0,0.0,47,0.00,,,0.00,WUHU216DAVISVP2,2013-05-07 09:19:00,
2013-05-07 02:24:00,51.9,31.7,29.98,SW,228,2.0,2.0,46,0.00,,,0.00,WUHU216DAVISVP2,2013-05-07 09:24:00,
2013-05-07 02:29:00,51.9,31.7,29.98,SW,227,1.0,2.0,46,0.00,,,0.00,WUHU216DAVISVP2,2013-05-07 09:29:00,
2013-05-07 02:34:00,52.2,31.9,29.97,SW,227,1.0,2.0,46,0.00,,,0.00,WUHU216DAVISVP2,2013-05-07 09:34:00,
2013-05-07 02:39:00,52.7,31.8,29.97,SW,223,3.0,7.0,45,0.00,,,0.00,WUHU216DAVISVP2,2013-05-07 09:39:00,
2013-05-07 02:44:00,53.9,31.8,29.97,SW,218,6.0,10.0,43,0.00,,,0.00,WUHU216DAVISVP2,2013-05-07 09:44:00,
2013-05-07 02:49:00,54.6,31.8,29.97,SW,219,6.0,11.0,42,0.00,,,0.00,WUHU216DAVISVP2,2013-05-07 09:49:00,
2013-05-07 02:54:00,54.9,32.1,29.97,SW,215,7.0,10.0,42,0.00,,,0.00,WUHU216DAVISVP2,2013-05-07 09:54:00,
2013-05-07 02:59:00,54.6,31.8,29.97,SSW,213,6.0,9.0,42,0.00,,,0.00,WUHU216DAVISVP2,2013-05-07 09:59:00,
2013-05-07 03:04:00,54.3,32.1,29.97,SW,217,6.0,10.0,43,0.00,,,0.00,WUHU216DAVISVP2,2013-05-07 10:04:00,
2013-05-07 03:09:00,54.1,32.5,29.97,SSW,213,6.0,8.0,44,0.00,,,0.00,WUHU216DAVISVP2,2013-05-07 10:09:00,
2013-05-07 03:14:00,54.0,32.5,29.97,SSW,212,6.0,8.0,44,0.00,,,0.00,WUHU216DAVISVP2,2013-05-07 10:14:00,
2013-05-07 03:19:00,53.9,32.9,29.97,SSW,209,5.0,8.0,45,0.00,,,0.00,WUHU216DAVISVP2,2013-05-07 10:19:00,
2013-05-07 03:24:00,53.9,32.9,29.97,SSW,201,6.0,8.0,45,0.00,,,0.00,WUHU216DAVISVP2,2013-05-07 10:24:00,
2013-05-07 03:29:00,53.7,32.8,29.97,South,191,5.0,8.0,45,0.00,,,0.00,WUHU216DAVISVP2,2013-05-07 10:29:00,
2013-05-07 03:34:00,53.6,32.7,29.97,SSW,193,5.0,8.0,45,0.00,,,0.00,WUHU216DAVISVP2,2013-05-07 10:34:00,
2013-05-07 03:39:00,53.7,32.8,29.97,SSW,205,5.0,8.0,45,0.00,,,0.00,WUHU216DAVISVP2,2013-05-07 10:39:00,
2013-05-07 03:45:00,53.5,33.1,29.97,SSW,211,4.0,6.0,46,0.00,,,0.00,WUHU216DAVISVP2,2013-05-07 10:45:00,
2013-05-07 03:50:00,53.0,32.7,29.96,SW,218,3.0,7.0,46,0.00,,,0.00,WUHU216DAVISVP2,2013-05-07 10:50:00,
2013-05-07 03:55:00,52.8,33.6,29.96,SSW,209,4.0,7.0,48,0.00,,,0.00,WUHU216DAVISVP2,2013-05-07 10:55:00,
2013-05-07 04:00:00,52.9,33.7,29.97,SSW,211,4.0,7.0,48,0.00,,,0.00,WUHU216DAVISVP2,2013-05-07 11:00:00,
2013-05-07 04:05:00,52.8,33.6,29.97,SW,224,4.0,6.0,48,0.00,,,0.00,WUHU216DAVISVP2,2013-05-07 11:05:00,
2013-05-07 04:10:00,52.7,33.5,29.96,SW,217,3.0,7.0,48,0.00,,,0.00,WUHU216DAVISVP2,2013-05-07 11:10:00,
2013-05-07 04:15:00,52.6,33.9,29.96,SSW,207,2.0,5.0,49,0.00,,,0.00,WUHU216DAVISVP2,2013-05-07 11:15:00,
2013-05-07 04:20:00,52.6,34.5,29.97,SSW,202,3.0,6.0,50,0.00,,,0.00,WUHU216DAVISVP2,2013-05-07 11:20:00,
2013-05-07 04:25:00,52.8,34.6,29.97,SSW,199,3.0,7.0,50,0.00,,,0.00,WUHU216DAVISVP2,2013-05-07 11:25:00,
2013-05-07 04:30:00,52.8,34.6,29.97,SSW,196,2.0,5.0,50,0.00,,,0.00,WUHU216DAVISVP2,2013-05-07 11:30:00,
2013-05-07 04:35:00,52.6,34.5,29.97,SSW,196,2.0,3.0,50,0.00,,,0.00,WUHU216DAVISVP2,2013-05-07 11:35:00,
2013-05-07 04:40:00,52.3,34.7,29.97,South,178,2.0,3.0,51,0.00,,,0.00,WUHU216DAVISVP2,2013-05-07 11:40:00,
2013-05-07 04:45:00,52.1,35.0,29.97,South,176,2.0,5.0,52,0.00,,,0.00,WUHU216DAVISVP2,2013-05-07 11:45:00,
2013-05-07 04:50:00,51.8,35.2,29.97,SSW,197,2.0,6.0,53,0.00,,,0.00,WUHU216DAVISVP2,2013-05-07 11:50:00,
2013-05-07 04:56:00,51.8,36.2,29.97,SSW,194,2.0,4.0,55,0.00,,,0.00,WUHU216DAVISVP2,2013-05-07 11:56:00,
2013-05-07 05:01:00,52.2,36.6,29.97,South,187,4.0,7.0,55,0.00,,,0.00,WUHU216DAVISVP2,2013-05-07 12:01:00,
2013-05-07 05:06:00,52.5,36.4,29.97,SSW,202,4.0,7.0,54,0.00,,,0.00,WUHU216DAVISVP2,2013-05-07 12:06:00,
2013-05-07 05:11:00,52.7,37.0,29.98,SSW,199,4.0,9.0,55,0.00,,,0.00,WUHU216DAVISVP2,2013-05-07 12:11:00,
2013-05-07 05:16:00,52.8,37.1,29.98,SSW,206,4.0,7.0,55,0.00,,,0.00,WUHU216DAVISVP2,2013-05-07 12:16:00,
2013-05-07 05:21:00,53.0,36.8,29.98,South,190,4.0,9.0,54,0.00,,,0.00,WUHU216DAVISVP2,2013-05-07 12:21:00,
2013-05-07 05:26:00,52.8,36.6,29.98,SSW,193,2.0,3.0,54,0.00,,,0.00,WUHU216DAVISVP2,2013-05-07 12:26:00,
2013-05-07 05:31:00,52.5,36.8,29.98,SSW,209,2.0,3.0,55,0.00,,,0.00,WUHU216DAVISVP2,2013-05-07 12:31:00,
2013-05-07 05:36:00,52.2,36.6,29.98,North,0,0.0,0.0,55,0.00,,,0.00,WUHU216DAVISVP2,2013-05-07 12:36:00,
2013-05-07 05:41:00,52.0,36.4,29.98,North,0,0.0,0.0,55,0.00,,,0.00,WUHU216DAVISVP2,2013-05-07 12:41:00,
2013-05-07 05:46:00,51.8,36.7,29.98,South,173,1.0,4.0,56,0.00,,,0.00,WUHU216DAVISVP2,2013-05-07 12:46:00,
2013-05-07 05:51:00,52.1,37.4,29.99,SSW,194,2.0,5.0,57,0.00,,,0.00,WUHU216DAVISVP2,2013-05-07 12:51:00,
2013-05-07 05:56:00,52.7,38.0,29.98,South,181,4.0,9.0,57,0.00,,,0.00,WUHU216DAVISVP2,2013-05-07 12:56:00,
2013-05-07 06:01:00,53.5,37.8,29.99,South,178,4.0,9.0,55,0.00,,,0.00,WUHU216DAVISVP2,2013-05-07 13:01:00,
2013-05-07 06:06:00,54.1,37.9,29.99,South,172,3.0,7.0,54,0.00,,,0.00,WUHU216DAVISVP2,2013-05-07 13:06:00,
2013-05-07 06:11:00,54.5,37.7,29.99,South,183,3.0,6.0,53,0.00,,,0.00,WUHU216DAVISVP2,2013-05-07 13:11:00,
2013-05-07 06:17:00,54.8,38.0,29.99,South,183,5.0,8.0,53,0.00,,,0.00,WUHU216DAVISVP2,2013-05-07 13:17:00,
2013-05-07 06:22:00,55.1,37.8,29.99,SSW,197,4.0,7.0,52,0.00,,,0.00,WUHU216DAVISVP2,2013-05-07 13:22:00,
2013-05-07 06:27:00,55.1,37.8,30.00,SW,233,2.0,5.0,52,0.00,,,0.00,WUHU216DAVISVP2,2013-05-07 13:27:00,
2013-05-07 06:32:00,55.2,37.9,30.00,SW,221,3.0,5.0,52,0.00,,,0.00,WUHU216DAVISVP2,2013-05-07 13:32:00,
2013-05-07 06:37:00,55.6,38.3,30.00,SW,217,3.0,5.0,52,0.00,,,0.00,WUHU216DAVISVP2,2013-05-07 13:37:00,
2013-05-07 06:42:00,56.0,38.1,30.00,SW,219,3.0,7.0,51,0.00,,,0.00,WUHU216DAVISVP2,2013-05-07 13:42:00,
2013-05-07 06:47:00,56.6,38.7,30.00,South,187,5.0,9.0,51,0.00,,,0.00,WUHU216DAVISVP2,2013-05-07 13:47:00,
2013-05-07 06:52:00,56.9,39.0,30.00,SSW,192,6.0,10.0,51,0.00,,,0.00,WUHU216DAVISVP2,2013-05-07 13:52:00,
2013-05-07 06:57:00,57.0,39.1,30.00,South,184,6.0,10.0,51,0.00,,,0.00,WUHU216DAVISVP2,2013-05-07 13:57:00,
2013-05-07 07:02:00,57.2,38.7,30.00,South,188,6.0,10.0,50,0.00,,,0.00,WUHU216DAVISVP2,2013-05-07 14:02:00,
2013-05-07 07:07:00,57.4,38.9,30.00,South,183,5.0,11.0,50,0.00,,,0.00,WUHU216DAVISVP2,2013-05-07 14:07:00,
2013-05-07 07:12:00,57.6,38.6,30.00,South,176,6.0,10.0,49,0.00,,,0.00,WUHU216DAVISVP2,2013-05-07 14:12:00,
2013-05-07 07:17:00,57.7,38.1,30.00,South,169,5.0,8.0,48,0.00,,,0.00,WUHU216DAVISVP2,2013-05-07 14:17:00,
2013-05-07 07:22:00,58.2,38.6,30.00,South,188,4.0,10.0,48,0.00,,,0.00,WUHU216DAVISVP2,2013-05-07 14:22:00,
2013-05-07 07:27:00,58.4,38.2,30.00,SSE,167,6.0,11.0,47,0.00,,,0.00,WUHU216DAVISVP2,2013-05-07 14:27:00,
2013-05-07 07:33:00,58.4,38.2,30.01,SSW,197,5.0,13.0,47,0.00,,,0.00,WUHU216DAVISVP2,2013-05-07 14:33:00,
2013-05-07 07:38:00,58.6,37.2,30.01,SSE,168,5.0,10.0,45,0.00,,,0.00,WUHU216DAVISVP2,2013-05-07 14:38:00,
2013-05-07 07:43:00,58.6,37.8,30.01,SE,141,5.0,9.0,46,0.00,,,0.00,WUHU216DAVISVP2,2013-05-07 14:43:00,
2013-05-07 07:48:00,58.9,38.1,30.01,SSE,161,5.0,10.0,46,0.00,,,0.00,WUHU216DAVISVP2,2013-05-07 14:48:00,
2013-05-07 07:53:00,59.3,38.5,30.01,SSE,167,5.0,8.0,46,0.00,,,0.00,WUHU216DAVISVP2,2013-05-07 14:53:00,
2013-05-07 07:58:00,59.2,38.4,30.01,South,190,5.0,11.0,46,0.00,,,0.00,WUHU216DAVISVP2,2013-05-07 14:58:00,
2013-05-07 08:03:00,59.5,38.1,30.00,SSE,152,5.0,9.0,45,0.00,,,0.00,WUHU216DAVISVP2,2013-05-07 15:03:00,
2013-05-07 08:08:00,59.5,38.1,30.00,SE,138,6.0,10.0,45,0.00,,,0.00,WUHU216DAVISVP2,2013-05-07 15:08:00,
2013-05-07 08:13:00,59.7,38.2,30.00,South,180,5.0,8.0,45,0.00,,,0.00,WUHU216DAVISVP2,2013-05-07 15:13:00,
2013-05-07 08:18:00,59.9,38.4,30.00,South,173,5.0,10.0,45,0.00,,,0.00,WUHU216DAVISVP2,2013-05-07 15:18:00,
2013-05-07 08:23:00,60.5,38.4,30.00,SSW,209,5.0,11.0,44,0.00,,,0.00,WUHU216DAVISVP2,2013-05-07 15:23:00,
2013-05-07 08:28:00,60.6,37.9,30.00,SSW,211,7.0,11.0,43,0.00,,,0.00,WUHU216DAVISVP2,2013-05-07 15:28:00,
2013-05-07 08:33:00,61.0,38.2,30.00,South,180,6.0,12.0,43,0.00,,,0.00,WUHU216DAVISVP2,2013-05-07 15:33:00,
2013-05-07 08:38:00,61.0,37.6,30.00,South,182,7.0,11.0,42,0.00,,,0.00,WUHU216DAVISVP2,2013-05-07 15:38:00,
2013-05-07 08:43:00,60.8,36.8,30.00,SSE,154,8.0,14.0,41,0.00,,,0.00,WUHU216DAVISVP2,2013-05-07 15:43:00,
2013-05-07 08:49:00,61.3,37.3,30.00,SW,217,7.0,12.0,41,0.00,,,0.00,WUHU216DAVISVP2,2013-05-07 15:49:00,
2013-05-07 08:54:00,61.7,37.6,29.99,SSW,200,7.0,13.0,41,0.00,,,0.00,WUHU216DAVISVP2,2013-05-07 15:54:00,
2013-05-07 08:59:00,62.2,37.4,30.00,South,175,7.0,12.0,40,0.00,,,0.00,WUHU216DAVISVP2,2013-05-07 15:59:00,
2013-05-07 09:04:00,62.3,36.9,29.99,SSW,194,9.0,15.0,39,0.00,,,0.00,WUHU216DAVISVP2,2013-05-07 16:04:00,
2013-05-07 09:09:00,62.3,36.9,30.00,SW,217,6.0,11.0,39,0.00,,,0.00,WUHU216DAVISVP2,2013-05-07 16:09:00,
2013-05-07 09:14:00,62.6,37.1,29.99,SW,214,9.0,14.0,39,0.00,,,0.00,WUHU216DAVISVP2,2013-05-07 16:14:00,
2013-05-07 09:19:00,62.9,36.0,30.00,SSW,212,8.0,14.0,37,0.00,,,0.00,WUHU216DAVISVP2,2013-05-07 16:19:00,
2013-05-07 09:24:00,62.9,35.3,29.99,SW,214,8.0,13.0,36,0.00,,,0.00,WUHU216DAVISVP2,2013-05-07 16:24:00,
2013-05-07 09:29:00,63.2,34.9,29.99,SSW,199,8.0,17.0,35,0.00,,,0.00,WUHU216DAVISVP2,2013-05-07 16:29:00,
2013-05-07 09:34:00,63.4,36.5,29.99,SSW,195,7.0,12.0,37,0.00,,,0.00,WUHU216DAVISVP2,2013-05-07 16:34:00,
2013-05-07 09:40:00,63.7,35.3,29.99,South,174,7.0,14.0,35,0.00,,,0.00,WUHU216DAVISVP2,2013-05-07 16:40:00,
2013-05-07 09:45:00,63.8,36.1,29.99,South,169,6.0,12.0,36,0.00,,,0.00,WUHU216DAVISVP2,2013-05-07 16:45:00,
2013-05-07 09:50:00,64.2,37.9,29.99,SW,214,7.0,14.0,38,0.00,,,0.00,WUHU216DAVISVP2,2013-05-07 16:50:00,
2013-05-07 09:55:00,64.5,37.5,29.99,SW,220,7.0,17.0,37,0.00,,,0.00,WUHU216DAVISVP2,2013-05-07 16:55:00,
2013-05-07 10:00:00,64.6,36.1,29.99,SSW,196,9.0,17.0,35,0.00,,,0.00,WUHU216DAVISVP2,2013-05-07 17:00:00,
2013-05-07 10:05:00,64.5,36.8,29.99,SW,214,6.0,14.0,36,0.00,,,0.00,WUHU216DAVISVP2,2013-05-07 17:05:00,
2013-05-07 10:10:00,64.9,37.1,29.99,SW,217,7.0,13.0,36,0.00,,,0.00,WUHU216DAVISVP2,2013-05-07 17:10:00,
2013-05-07 10:15:00,64.8,37.0,29.99,SSW,212,7.0,16.0,36,0.00,,,0.00,WUHU216DAVISVP2,2013-05-07 17:15:00,
2013-05-07 10:20:00,65.2,37.4,29.99,SW,216,8.0,14.0,36,0.00,,,0.00,WUHU216DAVISVP2,2013-05-07 17:20:00,
2013-05-07 10:25:00,65.5,36.9,29.99,SW,218,7.0,12.0,35,0.00,,,0.00,WUHU216DAVISVP2,2013-05-07 17:25:00,
2013-05-07 10:30:00,65.7,37.8,29.98,WSW,238,6.0,12.0,36,0.00,,,0.00,WUHU216DAVISVP2,2013-05-07 17:30:00,
2013-05-07 10:35:00,66.4,36.2,29.98,South,182,7.0,13.0,33,0.00,,,0.00,WUHU216DAVISVP2,2013-05-07 17:35:00,
2013-05-07 10:40:00,66.6,32.3,29.98,South,178,10.0,16.0,28,0.00,,,0.00,WUHU216DAVISVP2,2013-05-07 17:40:00,
2013-05-07 10:46:00,66.8,34.2,29.98,South,190,9.0,15.0,30,0.00,,,0.00,WUHU216DAVISVP2,2013-05-07 17:46:00,
2013-05-07 10:51:00,66.7,33.2,29.98,SSW,211,10.0,17.0,29,0.00,,,0.00,WUHU216DAVISVP2,2013-05-07 17:51:00,
2013-05-07 10:56:00,67.1,34.4,29.98,SSW,211,9.0,14.0,30,0.00,,,0.00,WUHU216DAVISVP2,2013-05-07 17:56:00,
2013-05-07 11:01:00,67.1,34.4,29.98,SW,216,6.0,16.0,30,0.00,,,0.00,WUHU216DAVISVP2,2013-05-07 18:01:00,
2013-05-07 11:06:00,67.5,33.9,29.98,SSW,211,10.0,16.0,29,0.00,,,0.00,WUHU216DAVISVP2,2013-05-07 18:06:00,
2013-05-07 11:11:00,67.2,33.7,29.98,SSW,192,6.0,14.0,29,0.00,,,0.00,WUHU216DAVISVP2,2013-05-07 18:11:00,
2013-05-07 11:16:00,68.1,32.7,29.98,SSW,210,8.0,16.0,27,0.00,,,0.00,WUHU216DAVISVP2,2013-05-07 18:16:00,
2013-05-07 11:21:00,68.7,31.3,29.98,SSW,205,9.0,17.0,25,0.00,,,0.00,WUHU216DAVISVP2,2013-05-07 18:21:00,
2013-05-07 11:26:00,67.8,31.5,29.98,SSW,196,10.0,21.0,26,0.00,,,0.00,WUHU216DAVISVP2,2013-05-07 18:26:00,
2013-05-07 11:31:00,68.3,31.9,29.97,SSW,211,9.0,17.0,26,0.00,,,0.00,WUHU216DAVISVP2,2013-05-07 18:31:00,
2013-05-07 11:36:00,68.3,31.9,29.97,SW,232,10.0,16.0,26,0.00,,,0.00,WUHU216DAVISVP2,2013-05-07 18:36:00,
2013-05-07 11:41:00,68.8,32.4,29.97,SSW,210,8.0,19.0,26,0.00,,,0.00,WUHU216DAVISVP2,2013-05-07 18:41:00,
2013-05-07 11:46:00,68.5,32.1,29.97,SW,220,9.0,16.0,26,0.00,,,0.00,WUHU216DAVISVP2,2013-05-07 18:46:00,
2013-05-07 11:51:00,69.2,33.6,29.96,SW,218,9.0,16.0,27,0.00,,,0.00,WUHU216DAVISVP2,2013-05-07 18:51:00,
2013-05-07 11:56:00,69.4,32.9,29.96,SSW,213,8.0,19.0,26,0.00,,,0.00,WUHU216DAVISVP2,2013-05-07 18:56:00,
2013-05-07 12:01:00,69.7,32.2,29.96,SW,214,10.0,17.0,25,0.00,,,0.00,WUHU216DAVISVP2,2013-05-07 19:01:00,
2013-05-07 12:07:00,69.9,32.3,29.95,SW,223,9.0,20.0,25,0.00,,,0.00,WUHU216DAVISVP2,2013-05-07 19:07:00,
2013-05-07 12:12:00,70.5,31.8,29.96,SW,216,9.0,17.0,24,0.00,,,0.00,WUHU216DAVISVP2,2013-05-07 19:12:00,
2013-05-07 12:17:00,70.5,33.8,29.95,WSW,247,10.0,16.0,26,0.00,,,0.00,WUHU216DAVISVP2,2013-05-07 19:17:00,
2013-05-07 12:22:00,70.8,34.1,29.95,SSW,199,8.0,14.0,26,0.00,,,0.00,WUHU216DAVISVP2,2013-05-07 19:22:00,
2013-05-07 12:27:00,70.9,33.2,29.96,South,187,8.0,14.0,25,0.00,,,0.00,WUHU216DAVISVP2,2013-05-07 19:27:00,
2013-05-07 12:32:00,71.0,31.2,29.95,SSW,209,7.0,15.0,23,0.00,,,0.00,WUHU216DAVISVP2,2013-05-07 19:32:00,
2013-05-07 12:37:00,71.6,32.8,29.95,South,190,8.0,15.0,24,0.00,,,0.00,WUHU216DAVISVP2,2013-05-07 19:37:00,
2013-05-07 12:42:00,71.6,31.7,29.95,South,186,7.0,11.0,23,0.00,,,0.00,WUHU216DAVISVP2,2013-05-07 19:42:00,
2013-05-07 12:47:00,71.5,31.7,29.94,South,187,9.0,15.0,23,0.00,,,0.00,WUHU216DAVISVP2,2013-05-07 19:47:00,
2013-05-07 12:52:00,71.0,32.3,29.94,SSW,195,8.0,17.0,24,0.00,,,0.00,WUHU216DAVISVP2,2013-05-07 19:52:00,
2013-05-07 12:57:00,71.1,31.3,29.94,SSW,212,10.0,17.0,23,0.00,,,0.00,WUHU216DAVISVP2,2013-05-07 19:57:00,
2013-05-07 13:02:00,70.7,31.0,29.94,SSW,213,9.0,15.0,23,0.00,,,0.00,WUHU216DAVISVP2,2013-05-07 20:02:00,
2013-05-07 13:07:00,70.5,30.8,29.94,SSW,209,8.0,16.0,23,0.00,,,0.00,WUHU216DAVISVP2,2013-05-07 20:07:00,
2013-05-07 13:12:00,71.1,33.4,29.94,SW,218,6.0,14.0,25,0.00,,,0.00,WUHU216DAVISVP2,2013-05-07 20:12:00,
2013-05-07 13:17:00,72.2,32.2,29.93,SW,214,6.0,13.0,23,0.00,,,0.00,WUHU216DAVISVP2,2013-05-07 20:17:00,
2013-05-07 13:22:00,72.8,29.3,29.94,SW,222,8.0,17.0,20,0.00,,,0.00,WUHU216DAVISVP2,2013-05-07 20:22:00,
2013-05-07 13:28:00,73.1,28.3,29.93,SW,231,8.0,13.0,19,0.00,,,0.00,WUHU216DAVISVP2,2013-05-07 20:28:00,
2013-05-07 13:33:00,74.0,27.8,29.93,SW,221,9.0,20.0,18,0.00,,,0.00,WUHU216DAVISVP2,2013-05-07 20:33:00,
2013-05-07 13:38:00,72.9,26.9,29.93,WSW,241,10.0,18.0,18,0.00,,,0.00,WUHU216DAVISVP2,2013-05-07 20:38:00,
2013-05-07 13:43:00,73.3,27.2,29.93,SSW,210,9.0,17.0,18,0.00,,,0.00,WUHU216DAVISVP2,2013-05-07 20:43:00,
2013-05-07 13:48:00,73.1,25.6,29.93,South,178,8.0,14.0,17,0.00,,,0.00,WUHU216DAVISVP2,2013-05-07 20:48:00,
2013-05-07 13:53:00,73.7,26.1,29.93,SSW,207,7.0,19.0,17,0.00,,,0.00,WUHU216DAVISVP2,2013-05-07 20:53:00,
2013-05-07 13:58:00,74.3,26.6,29.93,SSW,210,8.0,14.0,17,0.00,,,0.00,WUHU216DAVISVP2,2013-05-07 20:58:00,
2013-05-07 14:03:00,74.0,24.9,29.93,SSW,198,10.0,16.0,16,0.00,,,0.00,WUHU216DAVISVP2,2013-05-07 21:03:00,
2013-05-07 14:08:00,73.8,26.2,29.92,SSW,202,9.0,16.0,17,0.00,,,0.00,WUHU216DAVISVP2,2013-05-07 21:08:00,
2013-05-07 14:13:00,73.0,25.6,29.92,SSW,199,7.0,18.0,17,0.00,,,0.00,WUHU216DAVISVP2,2013-05-07 21:13:00,
2013-05-07 14:18:00,73.4,28.6,29.92,SSW,208,10.0,22.0,19,0.00,,,0.00,WUHU216DAVISVP2,2013-05-07 21:18:00,
2013-05-07 14:23:00,74.1,27.8,29.91,SSW,209,7.0,14.0,18,0.00,,,0.00,WUHU216DAVISVP2,2013-05-07 21:23:00,
2013-05-07 14:28:00,73.3,27.2,29.91,SSW,201,8.0,14.0,18,0.00,,,0.00,WUHU216DAVISVP2,2013-05-07 21:28:00,
2013-05-07 14:33:00,73.7,27.5,29.90,South,182,9.0,17.0,18,0.00,,,0.00,WUHU216DAVISVP2,2013-05-07 21:33:00,
2013-05-07 14:38:00,72.8,28.1,29.90,SSW,198,12.0,19.0,19,0.00,,,0.00,WUHU216DAVISVP2,2013-05-07 21:38:00,
2013-05-07 14:43:00,73.5,28.7,29.90,SW,223,8.0,16.0,19,0.00,,,0.00,WUHU216DAVISVP2,2013-05-07 21:43:00,
2013-05-07 14:48:00,74.3,30.6,29.90,SSW,211,10.0,17.0,20,0.00,,,0.00,WUHU216DAVISVP2,2013-05-07 21:48:00,
2013-05-07 14:54:00,73.4,29.8,29.90,South,189,7.0,13.0,20,0.00,,,0.00,WUHU216DAVISVP2,2013-05-07 21:54:00,
2013-05-07 14:59:00,73.5,31.1,29.90,SSW,198,7.0,18.0,21,0.00,,,0.00,WUHU216DAVISVP2,2013-05-07 21:59:00,
2013-05-07 15:04:00,74.1,30.4,29.90,SW,224,7.0,13.0,20,0.00,,,0.00,WUHU216DAVISVP2,2013-05-07 22:04:00,
2013-05-07 15:09:00,74.5,30.7,29.90,SW,214,11.0,18.0,20,0.00,,,0.00,WUHU216DAVISVP2,2013-05-07 22:09:00,
2013-05-07 15:14:00,73.7,30.1,29.89,SW,221,7.0,11.0,20,0.00,,,0.00,WUHU216DAVISVP2,2013-05-07 22:14:00,
2013-05-07 15:19:00,73.6,30.0,29.88,SSW,205,8.0,19.0,20,0.00,,,0.00,WUHU216DAVISVP2,2013-05-07 22:19:00,
2013-05-07 15:24:00,73.9,29.0,29.89,SSW,204,13.0,21.0,19,0.00,,,0.00,WUHU216DAVISVP2,2013-05-07 22:24:00,
2013-05-07 15:29:00,73.7,28.8,29.89,SSW,198,11.0,17.0,19,0.00,,,0.00,WUHU216DAVISVP2,2013-05-07 22:29:00,
2013-05-07 15:34:00,73.5,28.7,29.89,SSW,197,7.0,13.0,19,0.00,,,0.00,WUHU216DAVISVP2,2013-05-07 22:34:00,
2013-05-07 15:39:00,74.0,29.1,29.89,South,183,9.0,15.0,19,0.00,,,0.00,WUHU216DAVISVP2,2013-05-07 22:39:00,
2013-05-07 15:44:00,74.1,27.8,29.89,SSW,193,12.0,22.0,18,0.00,,,0.00,WUHU216DAVISVP2,2013-05-07 22:44:00,
2013-05-07 15:49:00,73.7,27.5,29.89,SW,217,11.0,20.0,18,0.00,,,0.00,WUHU216DAVISVP2,2013-05-07 22:49:00,
2013-05-07 15:54:00,73.7,27.5,29.89,SSW,211,9.0,17.0,18,0.00,,,0.00,WUHU216DAVISVP2,2013-05-07 22:54:00,
2013-05-07 15:59:00,73.4,27.3,29.88,SW,216,8.0,16.0,18,0.00,,,0.00,WUHU216DAVISVP2,2013-05-07 22:59:00,
2013-05-07 16:04:00,73.3,27.2,29.89,SSW,208,11.0,19.0,18,0.00,,,0.00,WUHU216DAVISVP2,2013-05-07 23:04:00,
2013-05-07 16:09:00,73.0,25.6,29.89,SW,216,12.0,20.0,17,0.00,,,0.00,WUHU216DAVISVP2,2013-05-07 23:09:00,
2013-05-07 16:15:00,73.2,25.7,29.88,SSW,202,9.0,18.0,17,0.00,,,0.00,WUHU216DAVISVP2,2013-05-07 23:15:00,
2013-05-07 16:20:00,72.8,25.4,29.88,SSW,198,9.0,16.0,17,0.00,,,0.00,WUHU216DAVISVP2,2013-05-07 23:20:00,
2013-05-07 16:25:00,72.8,23.9,29.88,SSW,194,9.0,17.0,16,0.00,,,0.00,WUHU216DAVISVP2,2013-05-07 23:25:00,
2013-05-07 16:30:00,72.5,23.7,29.88,SSW,211,11.0,19.0,16,0.00,,,0.00,WUHU216DAVISVP2,2013-05-07 23:30:00,
2013-05-07 16:35:00,72.9,24.0,29.89,SSW,205,13.0,21.0,16,0.00,,,0.00,WUHU216DAVISVP2,2013-05-07 23:35:00,
2013-05-07 16:40:00,73.1,24.2,29.89,SSW,209,10.0,19.0,16,0.00,,,0.00,WUHU216DAVISVP2,2013-05-07 23:40:00,
2013-05-07 16:45:00,73.0,24.1,29.88,SW,218,11.0,20.0,16,0.00,,,0.00,WUHU216DAVISVP2,2013-05-07 23:45:00,
2013-05-07 16:50:00,71.9,23.2,29.88,SSW,200,10.0,17.0,16,0.00,,,0.00,WUHU216DAVISVP2,2013-05-07 23:50:00,
2013-05-07 16:55:00,72.1,23.4,29.88,SSW,198,9.0,17.0,16,0.00,,,0.00,WUHU216DAVISVP2,2013-05-07 23:55:00,
2013-05-07 17:00:00,72.1,24.8,29.89,SW,214,9.0,14.0,17,0.00,,,0.00,WUHU216DAVISVP2,2013-05-08 00:00:00,
2013-05-07 17:05:00,72.4,25.1,29.89,SSW,212,9.0,14.0,17,0.00,,,0.00,WUHU216DAVISVP2,2013-05-08 00:05:00,
2013-05-07 17:10:00,72.5,25.2,29.88,SSW,199,10.0,18.0,17,0.00,,,0.00,WUHU216DAVISVP2,2013-05-08 00:10:00,
2013-05-07 17:15:00,72.0,26.1,29.89,SW,221,10.0,18.0,18,0.00,,,0.00,WUHU216DAVISVP2,2013-05-08 00:15:00,
2013-05-07 17:20:00,71.9,27.4,29.88,SSW,195,10.0,16.0,19,0.00,,,0.00,WUHU216DAVISVP2,2013-05-08 00:20:00,
2013-05-07 17:26:00,71.9,27.4,29.89,SSW,212,10.0,18.0,19,0.00,,,0.00,WUHU216DAVISVP2,2013-05-08 00:26:00,
2013-05-07 17:31:00,71.4,26.9,29.88,SSW,211,11.0,18.0,19,0.00,,,0.00,WUHU216DAVISVP2,2013-05-08 00:31:00,
2013-05-07 17:36:00,71.2,26.8,29.88,SSW,206,10.0,17.0,19,0.00,,,0.00,WUHU216DAVISVP2,2013-05-08 00:36:00,
2013-05-07 17:41:00,71.3,26.9,29.88,SSW,209,10.0,16.0,19,0.00,,,0.00,WUHU216DAVISVP2,2013-05-08 00:41:00,
2013-05-07 17:46:00,71.3,26.9,29.88,SW,235,10.0,16.0,19,0.00,,,0.00,WUHU216DAVISVP2,2013-05-08 00:46:00,
2013-05-07 17:51:00,71.1,26.7,29.88,SW,228,8.0,16.0,19,0.00,,,0.00,WUHU216DAVISVP2,2013-05-08 00:51:00,
2013-05-07 17:56:00,70.9,26.5,29.88,SW,225,10.0,16.0,19,0.00,,,0.00,WUHU216DAVISVP2,2013-05-08 00:56:00,
2013-05-07 18:01:00,70.5,26.2,29.88,SW,221,10.0,18.0,19,0.00,,,0.00,WUHU216DAVISVP2,2013-05-08 01:01:00,
2013-05-07 18:06:00,70.3,26.0,29.88,SW,233,8.0,15.0,19,0.00,,,0.00,WUHU216DAVISVP2,2013-05-08 01:06:00,
2013-05-07 18:11:00,70.0,25.8,29.88,SW,226,8.0,14.0,19,0.00,,,0.00,WUHU216DAVISVP2,2013-05-08 01:11:00,
2013-05-07 18:16:00,69.5,25.4,29.88,SW,219,9.0,17.0,19,0.00,,,0.00,WUHU216DAVISVP2,2013-05-08 01:16:00,
2013-05-07 18:21:00,69.1,25.0,29.88,SW,217,9.0,18.0,19,0.00,,,0.00,WUHU216DAVISVP2,2013-05-08 01:21:00,
2013-05-07 18:26:00,68.5,25.8,29.89,SW,224,9.0,16.0,20,0.00,,,0.00,WUHU216DAVISVP2,2013-05-08 01:26:00,
2013-05-07 18:31:00,68.0,25.4,29.89,SW,222,8.0,15.0,20,0.00,,,0.00,WUHU216DAVISVP2,2013-05-08 01:31:00,
2013-05-07 18:36:00,67.6,25.0,29.89,SSW,197,9.0,14.0,20,0.00,,,0.00,WUHU216DAVISVP2,2013-05-08 01:36:00,
2013-05-07 18:41:00,67.3,24.8,29.89,SW,221,7.0,13.0,20,0.00,,,0.00,WUHU216DAVISVP2,2013-05-08 01:41:00,
2013-05-07 18:47:00,67.1,25.8,29.89,SW,218,7.0,12.0,21,0.00,,,0.00,WUHU216DAVISVP2,2013-05-08 01:47:00,
2013-05-07 18:52:00,66.8,25.5,29.89,SW,233,7.0,12.0,21,0.00,,,0.00,WUHU216DAVISVP2,2013-05-08 01:52:00,
2013-05-07 18:57:00,66.5,26.4,29.89,SW,236,8.0,14.0,22,0.00,,,0.00,WUHU216DAVISVP2,2013-05-08 01:57:00,
2013-05-07 19:02:00,66.3,26.2,29.89,WSW,238,7.0,12.0,22,0.00,,,0.00,WUHU216DAVISVP2,2013-05-08 02:02:00,
2013-05-07 19:07:00,66.0,26.0,29.89,SW,234,6.0,10.0,22,0.00,,,0.00,WUHU216DAVISVP2,2013-05-08 02:07:00,
2013-05-07 19:12:00,65.8,25.8,29.89,SW,235,7.0,14.0,22,0.00,,,0.00,WUHU216DAVISVP2,2013-05-08 02:12:00,
2013-05-07 19:17:00,65.5,25.5,29.90,SW,222,5.0,9.0,22,0.00,,,0.00,WUHU216DAVISVP2,2013-05-08 02:17:00,
2013-05-07 19:22:00,65.2,26.3,29.90,SW,216,5.0,9.0,23,0.00,,,0.00,WUHU216DAVISVP2,2013-05-08 02:22:00,
2013-05-07 19:27:00,65.0,26.2,29.90,SW,222,7.0,12.0,23,0.00,,,0.00,WUHU216DAVISVP2,2013-05-08 02:27:00,
2013-05-07 19:32:00,64.8,26.0,29.90,SW,219,6.0,10.0,23,0.00,,,0.00,WUHU216DAVISVP2,2013-05-08 02:32:00,
2013-05-07 19:37:00,64.7,25.9,29.90,SW,226,7.0,10.0,23,0.00,,,0.00,WUHU216DAVISVP2,2013-05-08 02:37:00,
2013-05-07 19:42:00,64.5,26.8,29.90,SW,224,5.0,10.0,24,0.00,,,0.00,WUHU216DAVISVP2,2013-05-08 02:42:00,
2013-05-07 19:47:00,64.2,26.5,29.90,SW,227,5.0,9.0,24,0.00,,,0.00,WUHU216DAVISVP2,2013-05-08 02:47:00,
2013-05-07 19:52:00,63.8,26.2,29.90,SW,232,4.0,8.0,24,0.00,,,0.00,WUHU216DAVISVP2,2013-05-08 02:52:00,
2013-05-07 19:57:00,63.6,26.0,29.90,SW,230,5.0,9.0,24,0.00,,,0.00,WUHU216DAVISVP2,2013-05-08 02:57:00,
2013-05-07 20:02:00,63.3,25.8,29.90,SW,235,4.0,7.0,24,0.00,,,0.00,WUHU216DAVISVP2,2013-05-08 03:02:00,
2013-05-07 20:08:00,63.0,26.5,29.91,SW,227,4.0,7.0,25,0.00,,,0.00,WUHU216DAVISVP2,2013-05-08 03:08:00,
2013-05-07 20:13:00,62.7,26.2,29.91,SW,225,4.0,7.0,25,0.00,,,0.00,WUHU216DAVISVP2,2013-05-08 03:13:00,
2013-05-07 20:18:00,62.5,26.0,29.91,SW,233,3.0,9.0,25,0.00,,,0.00,WUHU216DAVISVP2,2013-05-08 03:18:00,
2013-05-07 20:23:00,62.4,26.0,29.91,SW,231,4.0,8.0,25,0.00,,,0.00,WUHU216DAVISVP2,2013-05-08 03:23:00,
2013-05-07 20:28:00,62.5,27.0,29.91,SW,235,5.0,10.0,26,0.00,,,0.00,WUHU216DAVISVP2,2013-05-08 03:28:00,
2013-05-07 20:33:00,62.7,26.2,29.92,WSW,238,5.0,8.0,25,0.00,,,0.00,WUHU216DAVISVP2,2013-05-08 03:33:00,
2013-05-07 20:38:00,62.6,26.1,29.92,WSW,244,5.0,9.0,25,0.00,,,0.00,WUHU216DAVISVP2,2013-05-08 03:38:00,
2013-05-07 20:43:00,62.6,27.1,29.92,WSW,251,6.0,10.0,26,0.00,,,0.00,WUHU216DAVISVP2,2013-05-08 03:43:00,
2013-05-07 20:48:00,62.4,26.9,29.92,WSW,248,5.0,9.0,26,0.00,,,0.00,WUHU216DAVISVP2,2013-05-08 03:48:00,
2013-05-07 20:53:00,62.1,26.6,29.92,WSW,243,3.0,7.0,26,0.00,,,0.00,WUHU216DAVISVP2,2013-05-08 03:53:00,
2013-05-07 20:58:00,61.9,26.5,29.92,WSW,248,4.0,9.0,26,0.00,,,0.00,WUHU216DAVISVP2,2013-05-08 03:58:00,
2013-05-07 21:03:00,61.5,26.1,29.93,WSW,258,3.0,7.0,26,0.00,,,0.00,WUHU216DAVISVP2,2013-05-08 04:03:00,
2013-05-07 21:08:00,61.1,25.8,29.93,West,259,2.0,4.0,26,0.00,,,0.00,WUHU216DAVISVP2,2013-05-08 04:08:00,
2013-05-07 21:13:00,60.8,25.5,29.93,WSW,254,2.0,4.0,26,0.00,,,0.00,WUHU216DAVISVP2,2013-05-08 04:13:00,
2013-05-07 21:18:00,60.5,25.3,29.94,WSW,251,1.0,3.0,26,0.00,,,0.00,WUHU216DAVISVP2,2013-05-08 04:18:00,
2013-05-07 21:23:00,60.3,26.0,29.94,North,0,0.0,0.0,27,0.00,,,0.00,WUHU216DAVISVP2,2013-05-08 04:23:00,
2013-05-07 21:29:00,59.8,25.6,29.94,North,0,0.0,0.0,27,0.00,,,0.00,WUHU216DAVISVP2,2013-05-08 04:29:00,
2013-05-07 21:34:00,59.5,26.2,29.95,North,0,0.0,0.0,28,0.00,,,0.00,WUHU216DAVISVP2,2013-05-08 04:34:00,
2013-05-07 21:39:00,58.6,25.4,29.95,WSW,252,1.0,2.0,28,0.00,,,0.00,WUHU216DAVISVP2,2013-05-08 04:39:00,
2013-05-07 21:44:00,58.1,25.8,29.95,WSW,252,1.0,1.0,29,0.00,,,0.00,WUHU216DAVISVP2,2013-05-08 04:44:00,
2013-05-07 21:49:00,57.9,25.6,29.95,North,0,0.0,0.0,29,0.00,,,0.00,WUHU216DAVISVP2,2013-05-08 04:49:00,
2013-05-07 21:54:00,57.6,25.4,29.96,North,0,0.0,0.0,29,0.00,,,0.00,WUHU216DAVISVP2,2013-05-08 04:54:00,
2013-05-07 21:59:00,57.5,25.3,29.96,North,0,0.0,0.0,29,0.00,,,0.00,WUHU216DAVISVP2,2013-05-08 04:59:00,
2013-05-07 22:04:00,57.1,25.7,29.96,WSW,252,1.0,1.0,30,0.00,,,0.00,WUHU216DAVISVP2,2013-05-08 05:04:00,
2013-05-07 22:09:00,57.1,25.7,29.96,North,0,0.0,0.0,30,0.00,,,0.00,WUHU216DAVISVP2,2013-05-08 05:09:00,
2013-05-07 22:14:00,56.9,25.6,29.96,WSW,252,1.0,1.0,30,0.00,,,0.00,WUHU216DAVISVP2,2013-05-08 05:14:00,
2013-05-07 22:19:00,56.8,25.5,29.96,WSW,252,1.0,2.0,30,0.00,,,0.00,WUHU216DAVISVP2,2013-05-08 05:19:00,
2013-05-07 22:24:00,57.1,25.7,29.96,SW,231,3.0,7.0,30,0.00,,,0.00,WUHU216DAVISVP2,2013-05-08 05:24:00,
2013-05-07 22:29:00,57.3,25.9,29.95,SSW,206,1.0,2.0,30,0.00,,,0.00,WUHU216DAVISVP2,2013-05-08 05:29:00,
2013-05-07 22:34:00,57.5,26.1,29.96,SW,218,2.0,4.0,30,0.00,,,0.00,WUHU216DAVISVP2,2013-05-08 05:34:00,
2013-05-07 22:39:00,58.3,26.0,29.96,SSW,202,3.0,6.0,29,0.00,,,0.00,WUHU216DAVISVP2,2013-05-08 05:39:00,
2013-05-07 22:44:00,59.2,26.7,29.96,SSW,205,5.0,9.0,29,0.00,,,0.00,WUHU216DAVISVP2,2013-05-08 05:44:00,
2013-05-07 22:49:00,59.8,27.3,29.96,SSW,210,4.0,8.0,29,0.00,,,0.00,WUHU216DAVISVP2,2013-05-08 05:49:00,
2013-05-07 22:55:00,59.9,27.3,29.96,SW,214,4.0,7.0,29,0.00,,,0.00,WUHU216DAVISVP2,2013-05-08 05:55:00,
2013-05-07 23:00:00,60.1,27.5,29.96,SW,216,6.0,12.0,29,0.00,,,0.00,WUHU216DAVISVP2,2013-05-08 06:00:00,
2013-05-07 23:05:00,60.1,27.5,29.96,SSW,212,5.0,9.0,29,0.00,,,0.00,WUHU216DAVISVP2,2013-05-08 06:05:00,
2013-05-07 23:10:00,59.9,27.3,29.96,SSW,210,4.0,7.0,29,0.00,,,0.00,WUHU216DAVISVP2,2013-05-08 06:10:00,
2013-05-07 23:15:00,59.4,27.7,29.96,SSW,211,3.0,5.0,30,0.00,,,0.00,WUHU216DAVISVP2,2013-05-08 06:15:00,
2013-05-07 23:20:00,58.9,26.5,29.96,WSW,247,2.0,5.0,29,0.00,,,0.00,WUHU216DAVISVP2,2013-05-08 06:20:00,
2013-05-07 23:25:00,58.5,26.1,29.96,WNW,286,2.0,4.0,29,0.00,,,0.00,WUHU216DAVISVP2,2013-05-08 06:25:00,
2013-05-07 23:30:00,57.8,27.1,29.96,West,268,2.0,6.0,31,0.00,,,0.00,WUHU216DAVISVP2,2013-05-08 06:30:00,
2013-05-07 23:35:00,57.2,28.9,29.97,West,270,2.0,5.0,34,0.00,,,0.00,WUHU216DAVISVP2,2013-05-08 06:35:00,
2013-05-07 23:40:00,56.9,30.7,29.97,West,273,5.0,9.0,37,0.00,,,0.00,WUHU216DAVISVP2,2013-05-08 06:40:00,
2013-05-07 23:45:00,57.0,31.4,29.97,West,259,6.0,10.0,38,0.00,,,0.00,WUHU216DAVISVP2,2013-05-08 06:45:00,
2013-05-07 23:50:00,57.0,32.1,29.97,West,279,6.0,11.0,39,0.00,,,0.00,WUHU216DAVISVP2,2013-05-08 06:50:00,
2013-05-07 23:55:00,56.8,31.9,29.97,West,279,4.0,8.0,39,0.00,,,0.00,WUHU216DAVISVP2,2013-05-08 06:55:00,